Year,Month,Day,Hour,Minute,Value (Times are PST for temperature in C)
2009,02,03,00,00,3.70
2009,02,03,00,01,3.70
2009,02,03,00,02,3.70
2009,02,03,00,03,3.70
2009,02,03,00,04,3.60
2009,02,03,00,05,3.60
2009,02,03,00,06,3.60
2009,02,03,00,07,3.60
2009,02,03,00,08,3.60
2009,02,03,00,09,3.60
2009,02,03,00,10,3.60
2009,02,03,00,11,3.50
2009,02,03,00,12,3.50
2009,02,03,00,13,3.50
2009,02,03,00,14,3.50
2009,02,03,00,15,3.50
2009,02,03,00,16,3.50
2009,02,03,00,17,3.50
2009,02,03,00,18,3.60
2009,02,03,00,19,3.60
2009,02,03,00,20,3.60
2009,02,03,00,21,3.70
2009,02,03,00,22,3.70
2009,02,03,00,23,3.70
2009,02,03,00,24,3.70
2009,02,03,00,25,3.80
2009,02,03,00,26,3.80
2009,02,03,00,27,3.80
2009,02,03,00,28,3.80
2009,02,03,00,29,3.80
2009,02,03,00,30,3.80
2009,02,03,00,31,3.80
2009,02,03,00,32,3.80
2009,02,03,00,33,3.80
2009,02,03,00,34,3.80
2009,02,03,00,35,3.80
2009,02,03,00,36,3.80
2009,02,03,00,37,3.80
2009,02,03,00,38,3.80
2009,02,03,00,39,3.80
2009,02,03,00,40,3.80
2009,02,03,00,41,3.80
2009,02,03,00,42,3.80
2009,02,03,00,43,3.80
2009,02,03,00,44,3.80
2009,02,03,00,45,3.80
2009,02,03,00,46,3.80
2009,02,03,00,47,3.80
2009,02,03,00,48,3.80
2009,02,03,00,49,3.80
2009,02,03,00,50,3.80
2009,02,03,00,51,3.80
2009,02,03,00,52,3.80
2009,02,03,00,53,3.80
2009,02,03,00,54,3.80
2009,02,03,00,55,3.70
2009,02,03,00,56,3.70
2009,02,03,00,57,3.70
2009,02,03,00,58,3.70
2009,02,03,00,59,3.80
2009,02,03,01,00,3.80
2009,02,03,01,01,3.80
2009,02,03,01,02,3.80
2009,02,03,01,03,3.80
2009,02,03,01,04,3.80
2009,02,03,01,05,3.80
2009,02,03,01,06,3.80
2009,02,03,01,07,3.90
2009,02,03,01,08,3.90
2009,02,03,01,09,3.90
2009,02,03,01,10,3.90
2009,02,03,01,11,3.90
2009,02,03,01,12,3.90
2009,02,03,01,13,3.90
2009,02,03,01,14,3.90
2009,02,03,01,15,3.90
2009,02,03,01,16,3.90
2009,02,03,01,17,3.90
2009,02,03,01,18,3.90
2009,02,03,01,19,3.90
2009,02,03,01,20,3.90
2009,02,03,01,21,3.90
2009,02,03,01,22,3.90
2009,02,03,01,23,3.90
2009,02,03,01,24,3.80
2009,02,03,01,25,3.80
2009,02,03,01,26,3.80
2009,02,03,01,27,3.80
2009,02,03,01,28,3.80
2009,02,03,01,29,3.80
2009,02,03,01,30,3.80
2009,02,03,01,31,3.80
2009,02,03,01,32,3.80
2009,02,03,01,33,3.80
2009,02,03,01,34,3.80
2009,02,03,01,35,3.80
2009,02,03,01,36,3.80
2009,02,03,01,37,3.80
2009,02,03,01,38,3.80
2009,02,03,01,39,3.80
2009,02,03,01,40,3.80
2009,02,03,01,41,3.80
2009,02,03,01,42,3.80
2009,02,03,01,43,3.80
2009,02,03,01,44,3.80
2009,02,03,01,45,3.80
2009,02,03,01,46,3.80
2009,02,03,01,47,3.80
2009,02,03,01,48,3.80
2009,02,03,01,49,3.80
2009,02,03,01,50,3.80
2009,02,03,01,51,3.80
2009,02,03,01,52,3.80
2009,02,03,01,53,3.80
2009,02,03,01,54,3.80
2009,02,03,01,55,3.80
2009,02,03,01,56,3.70
2009,02,03,01,57,3.70
2009,02,03,01,58,3.70
2009,02,03,01,59,3.70
2009,02,03,02,00,3.60
2009,02,03,02,01,3.60
2009,02,03,02,02,3.60
2009,02,03,02,03,3.60
2009,02,03,02,04,3.50
2009,02,03,02,05,3.50
2009,02,03,02,06,3.50
2009,02,03,02,07,3.50
2009,02,03,02,08,3.40
2009,02,03,02,09,3.40
2009,02,03,02,10,3.40
2009,02,03,02,11,3.40
2009,02,03,02,12,3.40
2009,02,03,02,13,3.40
2009,02,03,02,14,3.30
2009,02,03,02,15,3.30
2009,02,03,02,16,3.30
2009,02,03,02,17,3.30
2009,02,03,02,18,3.30
2009,02,03,02,19,3.30
2009,02,03,02,20,3.30
2009,02,03,02,21,3.30
2009,02,03,02,22,3.30
2009,02,03,02,23,3.30
2009,02,03,02,24,3.20
2009,02,03,02,25,3.20
2009,02,03,02,26,3.20
2009,02,03,02,27,3.20
2009,02,03,02,28,3.20
2009,02,03,02,29,3.20
2009,02,03,02,30,3.10
2009,02,03,02,31,3.10
2009,02,03,02,32,3.10
2009,02,03,02,33,3.10
2009,02,03,02,34,3.10
2009,02,03,02,35,3.00
2009,02,03,02,36,3.00
2009,02,03,02,37,3.00
2009,02,03,02,38,3.00
2009,02,03,02,39,3.00
2009,02,03,02,40,2.90
2009,02,03,02,41,2.90
2009,02,03,02,42,2.90
2009,02,03,02,43,2.90
2009,02,03,02,44,2.90
2009,02,03,02,45,2.90
2009,02,03,02,46,2.90
2009,02,03,02,47,2.90
2009,02,03,02,48,2.90
2009,02,03,02,49,2.90
2009,02,03,02,50,2.90
2009,02,03,02,51,3.00
2009,02,03,02,52,3.00
2009,02,03,02,53,3.00
2009,02,03,02,54,3.10
2009,02,03,02,55,3.10
2009,02,03,02,56,3.10
2009,02,03,02,57,3.10
2009,02,03,02,58,3.10
2009,02,03,02,59,3.10
2009,02,03,03,00,3.10
2009,02,03,03,01,3.10
2009,02,03,03,02,3.20
2009,02,03,03,03,3.20
2009,02,03,03,04,3.20
2009,02,03,03,05,3.20
2009,02,03,03,06,3.30
2009,02,03,03,07,3.30
2009,02,03,03,08,3.30
2009,02,03,03,09,3.30
2009,02,03,03,10,3.30
2009,02,03,03,11,3.40
2009,02,03,03,12,3.40
2009,02,03,03,13,3.40
2009,02,03,03,14,3.40
2009,02,03,03,15,3.50
2009,02,03,03,16,3.50
2009,02,03,03,17,3.50
2009,02,03,03,18,3.60
2009,02,03,03,19,3.60
2009,02,03,03,20,3.60
2009,02,03,03,21,3.70
2009,02,03,03,22,3.70
2009,02,03,03,23,3.70
2009,02,03,03,24,3.70
2009,02,03,03,25,3.70
2009,02,03,03,26,3.80
2009,02,03,03,27,3.80
2009,02,03,03,28,3.80
2009,02,03,03,29,3.80
2009,02,03,03,30,3.90
2009,02,03,03,31,3.90
2009,02,03,03,32,3.90
2009,02,03,03,33,3.90
2009,02,03,03,34,3.90
2009,02,03,03,35,3.90
2009,02,03,03,36,3.80
2009,02,03,03,37,3.80
2009,02,03,03,38,3.80
2009,02,03,03,39,3.80
2009,02,03,03,40,3.80
2009,02,03,03,41,3.80
2009,02,03,03,42,3.80
2009,02,03,03,43,3.70
2009,02,03,03,44,3.70
2009,02,03,03,45,3.70
2009,02,03,03,46,3.70
2009,02,03,03,47,3.70
2009,02,03,03,48,3.70
2009,02,03,03,49,3.70
2009,02,03,03,50,3.80
2009,02,03,03,51,3.80
2009,02,03,03,52,3.80
2009,02,03,03,53,3.80
2009,02,03,03,54,3.80
2009,02,03,03,55,3.70
2009,02,03,03,56,3.70
2009,02,03,03,57,3.70
2009,02,03,03,58,3.70
2009,02,03,03,59,3.70
2009,02,03,04,00,3.70
2009,02,03,04,01,3.70
2009,02,03,04,02,3.80
2009,02,03,04,03,3.80
2009,02,03,04,04,3.80
2009,02,03,04,05,3.80
2009,02,03,04,06,3.80
2009,02,03,04,07,3.80
2009,02,03,04,08,3.80
2009,02,03,04,09,3.80
2009,02,03,04,10,3.80
2009,02,03,04,11,3.80
2009,02,03,04,12,3.80
2009,02,03,04,13,3.80
2009,02,03,04,14,3.80
2009,02,03,04,15,3.80
2009,02,03,04,16,3.80
2009,02,03,04,17,3.80
2009,02,03,04,18,3.70
2009,02,03,04,19,3.70
2009,02,03,04,20,3.70
2009,02,03,04,21,3.70
2009,02,03,04,22,3.70
2009,02,03,04,23,3.70
2009,02,03,04,24,3.80
2009,02,03,04,25,3.80
2009,02,03,04,26,3.80
2009,02,03,04,27,3.80
2009,02,03,04,28,3.80
2009,02,03,04,29,3.80
2009,02,03,04,30,3.80
2009,02,03,04,31,3.90
2009,02,03,04,32,3.90
2009,02,03,04,33,3.90
2009,02,03,04,34,3.90
2009,02,03,04,35,3.90
2009,02,03,04,36,3.90
2009,02,03,04,37,3.90
2009,02,03,04,38,3.90
2009,02,03,04,39,3.90
2009,02,03,04,40,3.90
2009,02,03,04,41,4.00
2009,02,03,04,42,4.00
2009,02,03,04,43,4.10
2009,02,03,04,44,4.10
2009,02,03,04,45,4.10
2009,02,03,04,46,4.10
2009,02,03,04,47,4.10
2009,02,03,04,48,4.00
2009,02,03,04,49,4.00
2009,02,03,04,50,4.00
2009,02,03,04,51,4.10
2009,02,03,04,52,4.10
2009,02,03,04,53,4.00
2009,02,03,04,54,4.00
2009,02,03,04,55,4.00
2009,02,03,04,56,4.00
2009,02,03,04,57,4.00
2009,02,03,04,58,4.00
2009,02,03,04,59,4.00
2009,02,03,05,00,4.00
2009,02,03,05,01,4.00
2009,02,03,05,02,4.00
2009,02,03,05,03,4.00
2009,02,03,05,04,4.10
2009,02,03,05,05,4.10
2009,02,03,05,06,4.10
2009,02,03,05,07,4.10
2009,02,03,05,08,4.10
2009,02,03,05,09,4.10
2009,02,03,05,10,4.20
2009,02,03,05,11,4.20
2009,02,03,05,12,4.20
2009,02,03,05,13,4.20
2009,02,03,05,14,4.20
2009,02,03,05,15,4.20
2009,02,03,05,16,4.20
2009,02,03,05,17,4.30
2009,02,03,05,18,4.30
2009,02,03,05,19,4.30
2009,02,03,05,20,4.30
2009,02,03,05,21,4.30
2009,02,03,05,22,4.30
2009,02,03,05,23,4.20
2009,02,03,05,24,4.20
2009,02,03,05,25,4.20
2009,02,03,05,26,4.20
2009,02,03,05,27,4.20
2009,02,03,05,28,4.20
2009,02,03,05,29,4.20
2009,02,03,05,30,4.10
2009,02,03,05,31,4.10
2009,02,03,05,32,4.00
2009,02,03,05,33,4.00
2009,02,03,05,34,4.00
2009,02,03,05,35,4.00
2009,02,03,05,36,3.90
2009,02,03,05,37,3.90
2009,02,03,05,38,3.90
2009,02,03,05,39,3.80
2009,02,03,05,40,3.70
2009,02,03,05,41,3.70
2009,02,03,05,42,3.70
2009,02,03,05,43,3.60
2009,02,03,05,44,3.60
2009,02,03,05,45,3.60
2009,02,03,05,46,3.60
2009,02,03,05,47,3.60
2009,02,03,05,48,3.60
2009,02,03,05,49,3.60
2009,02,03,05,50,3.60
2009,02,03,05,51,3.60
2009,02,03,05,52,3.60
2009,02,03,05,53,3.60
2009,02,03,05,54,3.60
2009,02,03,05,55,3.60
2009,02,03,05,56,3.60
2009,02,03,05,57,3.60
2009,02,03,05,58,3.60
2009,02,03,05,59,3.50
2009,02,03,06,00,3.50
2009,02,03,06,01,3.50
2009,02,03,06,02,3.50
2009,02,03,06,03,3.50
2009,02,03,06,04,3.50
2009,02,03,06,05,3.50
2009,02,03,06,06,3.50
2009,02,03,06,07,3.60
2009,02,03,06,08,3.60
2009,02,03,06,09,3.70
2009,02,03,06,10,3.70
2009,02,03,06,11,3.80
2009,02,03,06,12,3.80
2009,02,03,06,13,3.90
2009,02,03,06,14,4.00
2009,02,03,06,15,4.00
2009,02,03,06,16,4.00
2009,02,03,06,17,4.00
2009,02,03,06,18,3.90
2009,02,03,06,19,3.90
2009,02,03,06,20,3.90
2009,02,03,06,21,3.90
2009,02,03,06,22,3.90
2009,02,03,06,23,4.00
2009,02,03,06,24,4.00
2009,02,03,06,25,4.10
2009,02,03,06,26,4.10
2009,02,03,06,27,4.10
2009,02,03,06,28,4.10
2009,02,03,06,29,4.10
2009,02,03,06,30,4.10
2009,02,03,06,31,4.10
2009,02,03,06,32,4.10
2009,02,03,06,33,4.10
2009,02,03,06,34,4.10
2009,02,03,06,35,4.10
2009,02,03,06,36,4.10
2009,02,03,06,37,4.10
2009,02,03,06,38,4.10
2009,02,03,06,39,4.00
2009,02,03,06,40,4.00
2009,02,03,06,41,4.00
2009,02,03,06,42,4.00
2009,02,03,06,43,4.00
2009,02,03,06,44,4.00
2009,02,03,06,45,4.00
2009,02,03,06,46,4.00
2009,02,03,06,47,4.00
2009,02,03,06,48,4.00
2009,02,03,06,49,4.00
2009,02,03,06,50,4.00
2009,02,03,06,51,4.00
2009,02,03,06,52,4.00
2009,02,03,06,53,4.10
2009,02,03,06,54,4.20
2009,02,03,06,55,4.20
2009,02,03,06,56,4.20
2009,02,03,06,57,4.30
2009,02,03,06,58,4.30
2009,02,03,06,59,4.30
2009,02,03,07,00,4.30
2009,02,03,07,01,4.30
2009,02,03,07,02,4.30
2009,02,03,07,03,4.30
2009,02,03,07,04,4.30
2009,02,03,07,05,4.30
2009,02,03,07,06,4.30
2009,02,03,07,07,4.30
2009,02,03,07,08,4.30
2009,02,03,07,09,4.30
2009,02,03,07,10,4.30
2009,02,03,07,11,4.30
2009,02,03,07,12,4.30
2009,02,03,07,13,4.30
2009,02,03,07,14,4.30
2009,02,03,07,15,4.30
2009,02,03,07,16,4.30
2009,02,03,07,17,4.30
2009,02,03,07,18,4.30
2009,02,03,07,19,4.30
2009,02,03,07,20,4.30
2009,02,03,07,21,4.30
2009,02,03,07,22,4.30
2009,02,03,07,23,4.30
2009,02,03,07,24,4.30
2009,02,03,07,25,4.30
2009,02,03,07,26,4.30
2009,02,03,07,27,4.30
2009,02,03,07,28,4.30
2009,02,03,07,29,4.30
2009,02,03,07,30,4.30
2009,02,03,07,31,4.30
2009,02,03,07,32,4.30
2009,02,03,07,33,4.40
2009,02,03,07,34,4.40
2009,02,03,07,35,4.30
2009,02,03,07,36,4.30
2009,02,03,07,37,4.30
2009,02,03,07,38,4.30
2009,02,03,07,39,4.30
2009,02,03,07,40,4.30
2009,02,03,07,41,4.30
2009,02,03,07,42,4.30
2009,02,03,07,43,4.30
2009,02,03,07,44,4.20
2009,02,03,07,45,4.20
2009,02,03,07,46,4.20
2009,02,03,07,47,4.20
2009,02,03,07,48,4.20
2009,02,03,07,49,4.10
2009,02,03,07,50,4.10
2009,02,03,07,51,4.10
2009,02,03,07,52,4.10
2009,02,03,07,53,4.10
2009,02,03,07,54,4.10
2009,02,03,07,55,4.10
2009,02,03,07,56,4.10
2009,02,03,07,57,4.10
2009,02,03,07,58,4.10
2009,02,03,07,59,4.10
2009,02,03,08,00,4.10
2009,02,03,08,01,4.00
2009,02,03,08,02,4.00
2009,02,03,08,03,4.00
2009,02,03,08,04,4.00
2009,02,03,08,05,4.00
2009,02,03,08,06,4.00
2009,02,03,08,07,4.00
2009,02,03,08,08,3.90
2009,02,03,08,09,3.90
2009,02,03,08,10,3.90
2009,02,03,08,11,3.90
2009,02,03,08,12,3.90
2009,02,03,08,13,3.90
2009,02,03,08,14,3.90
2009,02,03,08,15,3.90
2009,02,03,08,16,3.90
2009,02,03,08,17,3.90
2009,02,03,08,18,3.90
2009,02,03,08,19,3.90
2009,02,03,08,20,3.90
2009,02,03,08,21,3.90
2009,02,03,08,22,3.90
2009,02,03,08,23,3.90
2009,02,03,08,24,4.00
2009,02,03,08,25,4.00
2009,02,03,08,26,4.00
2009,02,03,08,27,4.00
2009,02,03,08,28,4.00
2009,02,03,08,29,4.00
2009,02,03,08,30,4.00
2009,02,03,08,31,3.90
2009,02,03,08,32,3.90
2009,02,03,08,33,3.90
2009,02,03,08,34,3.90
2009,02,03,08,35,3.80
2009,02,03,08,36,3.80
2009,02,03,08,37,3.80
2009,02,03,08,38,3.70
2009,02,03,08,39,3.70
2009,02,03,08,40,3.60
2009,02,03,08,41,3.60
2009,02,03,08,42,3.60
2009,02,03,08,43,3.50
2009,02,03,08,44,3.50
2009,02,03,08,45,3.50
2009,02,03,08,46,3.50
2009,02,03,08,47,3.50
2009,02,03,08,48,3.60
2009,02,03,08,49,3.60
2009,02,03,08,50,3.60
2009,02,03,08,51,3.60
2009,02,03,08,52,3.60
2009,02,03,08,53,3.60
2009,02,03,08,54,3.60
2009,02,03,08,55,3.60
2009,02,03,08,56,3.60
2009,02,03,08,57,3.60
2009,02,03,08,58,3.60
2009,02,03,08,59,3.60
2009,02,03,09,00,3.60
2009,02,03,09,01,3.60
2009,02,03,09,02,3.60
2009,02,03,09,03,3.60
2009,02,03,09,04,3.60
2009,02,03,09,05,3.60
2009,02,03,09,06,3.60
2009,02,03,09,07,3.60
2009,02,03,09,08,3.50
2009,02,03,09,09,3.50
2009,02,03,09,10,3.50
2009,02,03,09,11,3.50
2009,02,03,09,12,3.40
2009,02,03,09,13,3.40
2009,02,03,09,14,3.40
2009,02,03,09,15,3.40
2009,02,03,09,16,3.40
2009,02,03,09,17,3.40
2009,02,03,09,18,3.50
2009,02,03,09,19,3.50
2009,02,03,09,20,3.50
2009,02,03,09,21,3.60
2009,02,03,09,22,3.60
2009,02,03,09,23,3.60
2009,02,03,09,24,3.60
2009,02,03,09,25,3.70
2009,02,03,09,26,3.70
2009,02,03,09,27,3.70
2009,02,03,09,28,3.70
2009,02,03,09,29,3.80
2009,02,03,09,30,3.80
2009,02,03,09,31,3.80
2009,02,03,09,32,3.80
2009,02,03,09,33,3.80
2009,02,03,09,34,3.80
2009,02,03,09,35,3.80
2009,02,03,09,36,3.80
2009,02,03,09,37,3.80
2009,02,03,09,38,3.80
2009,02,03,09,39,3.80
2009,02,03,09,40,3.80
2009,02,03,09,41,3.90
2009,02,03,09,42,3.90
2009,02,03,09,43,3.90
2009,02,03,09,44,4.00
2009,02,03,09,45,4.00
2009,02,03,09,46,4.00
2009,02,03,09,47,4.10
2009,02,03,09,48,4.10
2009,02,03,09,49,4.10
2009,02,03,09,50,4.10
2009,02,03,09,51,4.20
2009,02,03,09,52,4.20
2009,02,03,09,53,4.20
2009,02,03,09,54,4.30
2009,02,03,09,55,4.30
2009,02,03,09,56,4.40
2009,02,03,09,57,4.40
2009,02,03,09,58,4.40
2009,02,03,09,59,4.50
2009,02,03,10,00,4.50
2009,02,03,10,01,4.60
2009,02,03,10,02,4.60
2009,02,03,10,03,4.70
2009,02,03,10,04,4.70
2009,02,03,10,05,4.70
2009,02,03,10,06,4.70
2009,02,03,10,07,4.70
2009,02,03,10,08,4.60
2009,02,03,10,09,4.60
2009,02,03,10,10,4.60
2009,02,03,10,11,4.60
2009,02,03,10,12,4.60
2009,02,03,10,13,4.60
2009,02,03,10,14,4.60
2009,02,03,10,15,4.60
2009,02,03,10,16,4.70
2009,02,03,10,17,4.70
2009,02,03,10,18,4.70
2009,02,03,10,19,4.80
2009,02,03,10,20,4.80
2009,02,03,10,21,4.80
2009,02,03,10,22,4.90
2009,02,03,10,23,4.90
2009,02,03,10,24,5.00
2009,02,03,10,25,5.00
2009,02,03,10,26,5.10
2009,02,03,10,27,5.10
2009,02,03,10,28,5.20
2009,02,03,10,29,5.20
2009,02,03,10,30,5.30
2009,02,03,10,31,5.30
2009,02,03,10,32,5.30
2009,02,03,10,33,5.40
2009,02,03,10,34,5.40
2009,02,03,10,35,5.50
2009,02,03,10,36,5.60
2009,02,03,10,37,5.60
2009,02,03,10,38,5.70
2009,02,03,10,39,5.70
2009,02,03,10,40,5.80
2009,02,03,10,41,5.90
2009,02,03,10,42,6.00
2009,02,03,10,43,6.10
2009,02,03,10,44,6.10
2009,02,03,10,45,6.20
2009,02,03,10,46,6.20
2009,02,03,10,47,6.30
2009,02,03,10,48,6.30
2009,02,03,10,49,6.40
2009,02,03,10,50,6.40
2009,02,03,10,51,6.50
2009,02,03,10,52,6.50
2009,02,03,10,53,6.60
2009,02,03,10,54,6.60
2009,02,03,10,55,6.60
2009,02,03,10,56,6.70
2009,02,03,10,57,6.70
2009,02,03,10,58,6.70
2009,02,03,10,59,6.80
2009,02,03,11,00,6.80
2009,02,03,11,01,6.80
2009,02,03,11,02,6.80
2009,02,03,11,03,6.90
2009,02,03,11,04,6.90
2009,02,03,11,05,6.90
2009,02,03,11,06,7.00
2009,02,03,11,07,7.00
2009,02,03,11,08,7.00
2009,02,03,11,09,7.00
2009,02,03,11,10,7.10
2009,02,03,11,11,7.10
2009,02,03,11,12,7.10
2009,02,03,11,13,7.20
2009,02,03,11,14,7.20
2009,02,03,11,15,7.20
2009,02,03,11,16,7.30
2009,02,03,11,17,7.30
2009,02,03,11,18,7.30
2009,02,03,11,19,7.30
2009,02,03,11,20,7.40
2009,02,03,11,21,7.40
2009,02,03,11,22,7.40
2009,02,03,11,23,7.30
2009,02,03,11,24,7.30
2009,02,03,11,25,7.30
2009,02,03,11,26,7.20
2009,02,03,11,27,7.20
2009,02,03,11,28,7.20
2009,02,03,11,29,7.20
2009,02,03,11,30,7.20
2009,02,03,11,31,7.20
2009,02,03,11,32,7.20
2009,02,03,11,33,7.30
2009,02,03,11,34,7.30
2009,02,03,11,35,7.30
2009,02,03,11,36,7.30
2009,02,03,11,37,7.40
2009,02,03,11,38,7.40
2009,02,03,11,39,7.40
2009,02,03,11,40,7.50
2009,02,03,11,41,7.50
2009,02,03,11,42,7.60
2009,02,03,11,43,7.70
2009,02,03,11,44,7.70
2009,02,03,11,45,7.70
2009,02,03,11,46,7.60
2009,02,03,11,47,7.60
2009,02,03,11,48,7.50
2009,02,03,11,49,7.50
2009,02,03,11,50,7.50
2009,02,03,11,51,7.50
2009,02,03,11,52,7.50
2009,02,03,11,53,7.50
2009,02,03,11,54,7.50
2009,02,03,11,55,7.40
2009,02,03,11,56,7.40
2009,02,03,11,57,7.40
2009,02,03,11,58,7.40
2009,02,03,11,59,7.40
2009,02,03,12,00,7.40
2009,02,03,12,01,7.40
2009,02,03,12,02,7.40
2009,02,03,12,03,7.40
2009,02,03,12,04,7.50
2009,02,03,12,05,7.50
2009,02,03,12,06,7.60
2009,02,03,12,07,7.60
2009,02,03,12,08,7.60
2009,02,03,12,09,7.70
2009,02,03,12,10,7.70
2009,02,03,12,11,7.80
2009,02,03,12,12,7.80
2009,02,03,12,13,7.90
2009,02,03,12,14,7.90
2009,02,03,12,15,8.00
2009,02,03,12,16,8.00
2009,02,03,12,17,8.00
2009,02,03,12,18,8.00
2009,02,03,12,19,7.90
2009,02,03,12,20,7.90
2009,02,03,12,21,7.90
2009,02,03,12,22,7.90
2009,02,03,12,23,7.90
2009,02,03,12,24,8.00
2009,02,03,12,25,8.00
2009,02,03,12,26,8.10
2009,02,03,12,27,8.10
2009,02,03,12,28,8.20
2009,02,03,12,29,8.20
2009,02,03,12,30,8.20
2009,02,03,12,31,8.30
2009,02,03,12,32,8.30
2009,02,03,12,33,8.30
2009,02,03,12,34,8.30
2009,02,03,12,35,8.30
2009,02,03,12,36,8.30
2009,02,03,12,37,8.30
2009,02,03,12,38,8.30
2009,02,03,12,39,8.30
2009,02,03,12,40,8.30
2009,02,03,12,41,8.30
2009,02,03,12,42,8.30
2009,02,03,12,43,8.30
2009,02,03,12,44,8.30
2009,02,03,12,45,8.30
2009,02,03,12,46,8.30
2009,02,03,12,47,8.30
2009,02,03,12,48,8.40
2009,02,03,12,49,8.50
2009,02,03,12,50,8.50
2009,02,03,12,51,8.60
2009,02,03,12,52,8.70
2009,02,03,12,53,8.70
2009,02,03,12,54,8.80
2009,02,03,12,55,8.80
2009,02,03,12,56,8.90
2009,02,03,12,57,9.00
2009,02,03,12,58,9.10
2009,02,03,12,59,9.20
2009,02,03,13,00,9.20
2009,02,03,13,01,9.20
2009,02,03,13,02,9.20
2009,02,03,13,03,9.20
2009,02,03,13,04,9.20
2009,02,03,13,05,9.20
2009,02,03,13,06,9.20
2009,02,03,13,07,9.20
2009,02,03,13,08,9.20
2009,02,03,13,09,9.20
2009,02,03,13,10,9.30
2009,02,03,13,11,9.30
2009,02,03,13,12,9.30
2009,02,03,13,13,9.30
2009,02,03,13,14,9.30
2009,02,03,13,15,9.30
2009,02,03,13,16,9.30
2009,02,03,13,17,9.30
2009,02,03,13,18,9.30
2009,02,03,13,19,9.30
2009,02,03,13,20,9.30
2009,02,03,13,21,9.30
2009,02,03,13,22,9.40
2009,02,03,13,23,9.40
2009,02,03,13,24,9.40
2009,02,03,13,25,9.50
2009,02,03,13,26,9.60
2009,02,03,13,27,9.60
2009,02,03,13,28,9.60
2009,02,03,13,29,9.60
2009,02,03,13,30,9.60
2009,02,03,13,31,9.60
2009,02,03,13,32,9.60
2009,02,03,13,33,9.60
2009,02,03,13,34,9.60
2009,02,03,13,35,9.60
2009,02,03,13,36,9.60
2009,02,03,13,37,9.60
2009,02,03,13,38,9.70
2009,02,03,13,39,9.60
2009,02,03,13,40,9.60
2009,02,03,13,41,9.60
2009,02,03,13,42,9.70
2009,02,03,13,43,9.70
2009,02,03,13,44,9.80
2009,02,03,13,45,9.80
2009,02,03,13,46,9.90
2009,02,03,13,47,9.90
2009,02,03,13,48,9.80
2009,02,03,13,49,9.90
2009,02,03,13,50,9.80
2009,02,03,13,51,9.80
2009,02,03,13,52,9.80
2009,02,03,13,53,9.80
2009,02,03,13,54,9.80
2009,02,03,13,55,9.80
2009,02,03,13,56,9.80
2009,02,03,13,57,9.70
2009,02,03,13,58,9.70
2009,02,03,13,59,9.80
2009,02,03,14,00,9.80
2009,02,03,14,01,9.80
2009,02,03,14,02,9.80
2009,02,03,14,03,9.80
2009,02,03,14,04,9.80
2009,02,03,14,05,9.80
2009,02,03,14,06,9.80
2009,02,03,14,07,9.80
2009,02,03,14,08,9.80
2009,02,03,14,09,9.90
2009,02,03,14,10,9.90
2009,02,03,14,11,9.80
2009,02,03,14,12,9.80
2009,02,03,14,13,9.80
2009,02,03,14,14,9.70
2009,02,03,14,15,9.70
2009,02,03,14,16,9.70
2009,02,03,14,17,9.70
2009,02,03,14,18,9.80
2009,02,03,14,19,9.80
2009,02,03,14,20,9.80
2009,02,03,14,21,9.80
2009,02,03,14,22,9.70
2009,02,03,14,23,9.70
2009,02,03,14,24,9.60
2009,02,03,14,25,9.50
2009,02,03,14,26,9.50
2009,02,03,14,27,9.40
2009,02,03,14,28,9.40
2009,02,03,14,29,9.30
2009,02,03,14,30,9.30
2009,02,03,14,31,9.30
2009,02,03,14,32,9.30
2009,02,03,14,33,9.30
2009,02,03,14,34,9.30
2009,02,03,14,35,9.30
2009,02,03,14,36,9.40
2009,02,03,14,37,9.40
2009,02,03,14,38,9.40
2009,02,03,14,39,9.40
2009,02,03,14,40,9.40
2009,02,03,14,41,9.30
2009,02,03,14,42,9.30
2009,02,03,14,43,9.40
2009,02,03,14,44,9.40
2009,02,03,14,45,9.40
2009,02,03,14,46,9.40
2009,02,03,14,47,9.40
2009,02,03,14,48,9.40
2009,02,03,14,49,9.40
2009,02,03,14,50,9.30
2009,02,03,14,51,9.30
2009,02,03,14,52,9.20
2009,02,03,14,53,9.20
2009,02,03,14,54,9.20
2009,02,03,14,55,9.20
2009,02,03,14,56,9.30
2009,02,03,14,57,9.30
2009,02,03,14,58,9.20
2009,02,03,14,59,9.20
2009,02,03,15,00,9.20
2009,02,03,15,01,9.10
2009,02,03,15,02,9.10
2009,02,03,15,03,9.10
2009,02,03,15,04,9.10
2009,02,03,15,05,9.10
2009,02,03,15,06,9.10
2009,02,03,15,07,9.00
2009,02,03,15,08,8.90
2009,02,03,15,09,8.90
2009,02,03,15,10,8.90
2009,02,03,15,11,8.80
2009,02,03,15,12,8.80
2009,02,03,15,13,8.80
2009,02,03,15,14,8.80
2009,02,03,15,15,8.70
2009,02,03,15,16,8.80
2009,02,03,15,17,8.80
2009,02,03,15,18,8.80
2009,02,03,15,19,8.80
2009,02,03,15,20,8.70
2009,02,03,15,21,8.70
2009,02,03,15,22,8.60
2009,02,03,15,23,8.60
2009,02,03,15,24,8.60
2009,02,03,15,25,8.50
2009,02,03,15,26,8.50
2009,02,03,15,27,8.50
2009,02,03,15,28,8.40
2009,02,03,15,29,8.40
2009,02,03,15,30,8.40
2009,02,03,15,31,8.40
2009,02,03,15,32,8.30
2009,02,03,15,33,8.30
2009,02,03,15,34,8.20
2009,02,03,15,35,8.20
2009,02,03,15,36,8.20
2009,02,03,15,37,8.20
2009,02,03,15,38,8.10
2009,02,03,15,39,8.10
2009,02,03,15,40,8.10
2009,02,03,15,41,8.10
2009,02,03,15,42,8.10
2009,02,03,15,43,8.10
2009,02,03,15,44,8.10
2009,02,03,15,45,8.10
2009,02,03,15,46,8.10
2009,02,03,15,47,8.10
2009,02,03,15,48,8.10
2009,02,03,15,49,8.10
2009,02,03,15,50,8.10
2009,02,03,15,51,8.00
2009,02,03,15,52,8.00
2009,02,03,15,53,8.00
2009,02,03,15,54,8.00
2009,02,03,15,55,8.00
2009,02,03,15,56,7.90
2009,02,03,15,57,7.90
2009,02,03,15,58,7.90
2009,02,03,15,59,7.90
2009,02,03,16,00,7.90
2009,02,03,16,01,7.90
2009,02,03,16,02,7.90
2009,02,03,16,03,7.80
2009,02,03,16,04,7.80
2009,02,03,16,05,7.70
2009,02,03,16,06,7.70
2009,02,03,16,07,7.60
2009,02,03,16,08,7.60
2009,02,03,16,09,7.60
2009,02,03,16,10,7.50
2009,02,03,16,11,7.50
2009,02,03,16,12,7.40
2009,02,03,16,13,7.40
2009,02,03,16,14,7.40
2009,02,03,16,15,7.30
2009,02,03,16,16,7.30
2009,02,03,16,17,7.30
2009,02,03,16,18,7.20
2009,02,03,16,19,7.20
2009,02,03,16,20,7.20
2009,02,03,16,21,7.20
2009,02,03,16,22,7.20
2009,02,03,16,23,7.20
2009,02,03,16,24,7.10
2009,02,03,16,25,7.10
2009,02,03,16,26,7.10
2009,02,03,16,27,7.10
2009,02,03,16,28,7.10
2009,02,03,16,29,7.00
2009,02,03,16,30,7.00
2009,02,03,16,31,6.90
2009,02,03,16,32,6.90
2009,02,03,16,33,6.90
2009,02,03,16,34,6.90
2009,02,03,16,35,6.80
2009,02,03,16,36,6.80
2009,02,03,16,37,6.80
2009,02,03,16,38,6.80
2009,02,03,16,39,6.70
2009,02,03,16,40,6.70
2009,02,03,16,41,6.70
2009,02,03,16,42,6.70
2009,02,03,16,43,6.60
2009,02,03,16,44,6.60
2009,02,03,16,45,6.60
2009,02,03,16,46,6.50
2009,02,03,16,47,6.50
2009,02,03,16,48,6.50
2009,02,03,16,49,6.40
2009,02,03,16,50,6.40
2009,02,03,16,51,6.40
2009,02,03,16,52,6.30
2009,02,03,16,53,6.30
2009,02,03,16,54,6.30
2009,02,03,16,55,6.30
2009,02,03,16,56,6.30
2009,02,03,16,57,6.30
2009,02,03,16,58,6.20
2009,02,03,16,59,6.20
2009,02,03,17,00,6.20
2009,02,03,17,01,6.20
2009,02,03,17,02,6.20
2009,02,03,17,03,6.20
2009,02,03,17,04,6.20
2009,02,03,17,05,6.20
2009,02,03,17,06,6.10
2009,02,03,17,07,6.10
2009,02,03,17,08,6.10
2009,02,03,17,09,6.10
2009,02,03,17,10,6.10
2009,02,03,17,11,6.00
2009,02,03,17,12,6.00
2009,02,03,17,13,6.00
2009,02,03,17,14,5.90
2009,02,03,17,15,5.90
2009,02,03,17,16,5.90
2009,02,03,17,17,5.90
2009,02,03,17,18,5.80
2009,02,03,17,19,5.80
2009,02,03,17,20,5.80
2009,02,03,17,21,5.80
2009,02,03,17,22,5.80
2009,02,03,17,23,5.80
2009,02,03,17,24,5.80
2009,02,03,17,25,5.80
2009,02,03,17,26,5.80
2009,02,03,17,27,5.80
2009,02,03,17,28,5.80
2009,02,03,17,29,5.80
2009,02,03,17,30,5.80
2009,02,03,17,31,5.80
2009,02,03,17,32,5.80
2009,02,03,17,33,5.80
2009,02,03,17,34,5.80
2009,02,03,17,35,5.80
2009,02,03,17,36,5.80
2009,02,03,17,37,5.80
2009,02,03,17,38,5.80
2009,02,03,17,39,5.80
2009,02,03,17,40,5.70
2009,02,03,17,41,5.70
2009,02,03,17,42,5.70
2009,02,03,17,43,5.70
2009,02,03,17,44,5.70
2009,02,03,17,45,5.70
2009,02,03,17,46,5.70
2009,02,03,17,47,5.70
2009,02,03,17,48,5.70
2009,02,03,17,49,5.70
2009,02,03,17,50,5.70
2009,02,03,17,51,5.70
2009,02,03,17,52,5.70
2009,02,03,17,53,5.70
2009,02,03,17,54,5.70
2009,02,03,17,55,5.70
2009,02,03,17,56,5.70
2009,02,03,17,57,5.70
2009,02,03,17,58,5.70
2009,02,03,17,59,5.70
2009,02,03,18,00,5.70
2009,02,03,18,01,5.70
2009,02,03,18,02,5.70
2009,02,03,18,03,5.80
2009,02,03,18,04,5.80
2009,02,03,18,05,5.80
2009,02,03,18,06,5.80